• en Suisse
  • Liste des pays
  • À 7 jours
  • Température de l'eau
  • Carte satellitaire
  • Carte météo
  • Widgets météo
  • user-avatar
    Se connecter

    Météo par heure à Trowbridge

    Ce jour, 27 Mai, Dimanche

    Heure Température Précipitation Vent Pression Humidité
    00:00 +15°C° 0 mm 5 m/s 758 mmHg 89%
    01:00 +15°C° 0,1 mm 5 m/s 758 mmHg 90%
    02:00 +14°C° 0,1 mm 5 m/s 757 mmHg 92%
    03:00 +14°C° 0,1 mm 5 m/s 757 mmHg 93%
    04:00 +14°C° 0 mm 5 m/s 757 mmHg 93%
    05:00 +15°C° 0 mm 4 m/s 757 mmHg 93%
    06:00 +16°C° 0 mm 3 m/s 757 mmHg 91%
    07:00 +17°C° 0,7 mm 3 m/s 757 mmHg 90%
    08:00 +18°C° 0,7 mm 3 m/s 758 mmHg 90%
    09:00 +19°C° 0,7 mm 3 m/s 758 mmHg 89%
    10:00 +20°C° 0,1 mm 3 m/s 758 mmHg 86%
    11:00 +21°C° 0,1 mm 3 m/s 758 mmHg 83%
    12:00 +22°C° 0,1 mm 3 m/s 758 mmHg 80%
    13:00 +22°C° 0,2 mm 3 m/s 758 mmHg 77%
    14:00 +24°C° 0,2 mm 3 m/s 757 mmHg 75%
    15:00 +24°C° 0,2 mm 3 m/s 757 mmHg 72%
    16:00 +24°C° 0,1 mm 2 m/s 757 mmHg 75%
    17:00 +23°C° 0,1 mm 2 m/s 757 mmHg 77%
    18:00 +23°C° 0,1 mm 2 m/s 757 mmHg 79%
    19:00 +21°C° 0 mm 1 m/s 758 mmHg 82%
    20:00 +19°C° 0 mm 1 m/s 758 mmHg 86%
    21:00 +16°C° 0 mm 1 m/s 758 mmHg 89%
    22:00 +16°C° 0 mm 1 m/s 758 mmHg 90%
    23:00 +15°C° 0 mm 1 m/s 758 mmHg 90%

    Demain, 28 Mai, Lundi

    Heure Température Précipitation Vent Pression Humidité
    00:00 +15°C° 0 mm 1 m/s 758 mmHg 90%
    01:00 +15°C° 0 mm 1 m/s 758 mmHg 91%
    02:00 +14°C° 0 mm 1 m/s 758 mmHg 91%
    03:00 +13°C° 0 mm 0 m/s 759 mmHg 91%
    04:00 +15°C° 0 mm 1 m/s 759 mmHg 92%
    05:00 +16°C° 0 mm 1 m/s 759 mmHg 92%
    06:00 +16°C° 0 mm 2 m/s 759 mmHg 92%
    07:00 +18°C° 0 mm 2 m/s 759 mmHg 90%
    08:00 +19°C° 0 mm 3 m/s 760 mmHg 88%
    09:00 +20°C° 0 mm 3 m/s 760 mmHg 85%
    10:00 +21°C° 0,2 mm 3 m/s 760 mmHg 83%
    11:00 +22°C° 0,2 mm 3 m/s 760 mmHg 81%
    12:00 +24°C° 0,2 mm 3 m/s 760 mmHg 78%
    13:00 +24°C° 0,5 mm 3 m/s 760 mmHg 79%
    14:00 +24°C° 0,5 mm 3 m/s 759 mmHg 80%
    15:00 +25°C° 0,5 mm 3 m/s 759 mmHg 80%
    16:00 +23°C° 0,9 mm 4 m/s 759 mmHg 83%
    17:00 +23°C° 0,9 mm 4 m/s 759 mmHg 85%
    18:00 +22°C° 0,9 mm 4 m/s 759 mmHg 88%
    19:00 +21°C° 0,3 mm 4 m/s 759 mmHg 90%
    20:00 +20°C° 0,3 mm 4 m/s 760 mmHg 91%
    21:00 +19°C° 0,3 mm 4 m/s 760 mmHg 93%
    22:00 +19°C° 0 mm 4 m/s 760 mmHg 94%
    23:00 +18°C° 0 mm 4 m/s 760 mmHg 95%

    Après-demain, 29 Mai, Mardi

    Heure Température Précipitation Vent Pression Humidité
    00:00 +18°C° 0 mm 4 m/s 760 mmHg 96%
    01:00 +17°C° 0 mm 4 m/s 760 mmHg 96%
    02:00 +15°C° 0 mm 4 m/s 759 mmHg 96%
    03:00 +14°C° 0 mm 4 m/s 759 mmHg 96%
    04:00 +14°C° 0 mm 5 m/s 759 mmHg 95%
    05:00 +14°C° 0 mm 5 m/s 759 mmHg 95%
    06:00 +14°C° 0 mm 6 m/s 759 mmHg 94%
    07:00 +16°C° 0 mm 6 m/s 759 mmHg 90%
    08:00 +17°C° 0 mm 6 m/s 759 mmHg 87%
    09:00 +20°C° 0 mm 6 m/s 759 mmHg 83%
    10:00 +21°C° 0 mm 6 m/s 758 mmHg 80%
    11:00 +22°C° 0 mm 6 m/s 758 mmHg 77%
    12:00 +23°C° 0 mm 6 m/s 758 mmHg 74%
    13:00 +23°C° 0,2 mm 6 m/s 758 mmHg 74%
    14:00 +24°C° 0,2 mm 6 m/s 757 mmHg 74%
    15:00 +24°C° 0,2 mm 6 m/s 757 mmHg 74%
    16:00 +23°C° 0,1 mm 6 m/s 757 mmHg 76%
    17:00 +22°C° 0,1 mm 5 m/s 756 mmHg 79%
    18:00 +21°C° 0,1 mm 5 m/s 756 mmHg 81%
    19:00 +20°C° 0 mm 5 m/s 756 mmHg 83%
    20:00 +17°C° 0 mm 5 m/s 757 mmHg 85%
    21:00 +16°C° 0 mm 5 m/s 757 mmHg 88%
    22:00 +15°C° 0 mm 5 m/s 756 mmHg 90%
    23:00 +14°C° 0 mm 4 m/s 756 mmHg 91%

    30 Mai, Mercredi

    Heure Température Précipitation Vent Pression Humidité
    00:00 +12°C° 0 mm 4 m/s 756 mmHg 93%
    01:00 +12°C° 0 mm 4 m/s 756 mmHg 93%
    02:00 +12°C° 0 mm 4 m/s 756 mmHg 94%
    03:00 +11°C° 0 mm 4 m/s 755 mmHg 94%
    04:00 +11°C° 0 mm 4 m/s 755 mmHg 93%
    05:00 +12°C° 0 mm 4 m/s 755 mmHg 93%
    06:00 +12°C° 0 mm 5 m/s 755 mmHg 92%
    07:00 +13°C° 0 mm 4 m/s 755 mmHg 91%
    08:00 +13°C° 0 mm 4 m/s 755 mmHg 89%
    09:00 +14°C° 0 mm 4 m/s 755 mmHg 87%
    10:00 +16°C° 0 mm 3 m/s 755 mmHg 84%
    11:00 +17°C° 0 mm 3 m/s 755 mmHg 81%
    12:00 +18°C° 0 mm 2 m/s 755 mmHg 79%
    13:00 +19°C° 0 mm 2 m/s 755 mmHg 78%
    14:00 +19°C° 0 mm 2 m/s 754 mmHg 77%
    15:00 +20°C° 0 mm 2 m/s 754 mmHg 76%
    16:00 +20°C° 0 mm 2 m/s 754 mmHg 78%
    17:00 +20°C° 0 mm 2 m/s 754 mmHg 80%
    18:00 +19°C° 0 mm 2 m/s 754 mmHg 82%
    19:00 +18°C° 0 mm 2 m/s 754 mmHg 86%
    20:00 +17°C° 0 mm 2 m/s 754 mmHg 90%
    21:00 +15°C° 0 mm 1 m/s 755 mmHg 93%
    22:00 +15°C° 0 mm 1 m/s 755 mmHg 94%
    23:00 +14°C° 0 mm 1 m/s 755 mmHg 94%

    31 Mai, Jeudi

    Heure Température Précipitation Vent Pression Humidité
    00:00 +14°C° 0 mm 1 m/s 755 mmHg 95%
    01:00 +14°C° 0 mm 1 m/s 755 mmHg 95%
    02:00 +13°C° 0 mm 1 m/s 755 mmHg 95%
    03:00 +13°C° 0 mm 1 m/s 754 mmHg 95%
    04:00 +14°C° 0 mm 1 m/s 755 mmHg 95%
    05:00 +15°C° 0 mm 1 m/s 755 mmHg 94%
    06:00 +15°C° 0 mm 1 m/s 755 mmHg 93%
    07:00 +17°C° 0 mm 2 m/s 755 mmHg 89%
    08:00 +18°C° 0 mm 2 m/s 756 mmHg 86%
    09:00 +20°C° 0 mm 2 m/s 756 mmHg 82%
    10:00 +20°C° 0,1 mm 3 m/s 756 mmHg 81%
    11:00 +21°C° 0,1 mm 3 m/s 756 mmHg 81%
    12:00 +21°C° 0,1 mm 3 m/s 756 mmHg 80%
    13:00 +22°C° 0,7 mm 3 m/s 756 mmHg 81%
    14:00 +22°C° 0,7 mm 3 m/s 756 mmHg 81%
    15:00 +22°C° 0,7 mm 3 m/s 756 mmHg 82%
    16:00 +23°C° 0,5 mm 2 m/s 756 mmHg 83%
    17:00 +21°C° 0,5 mm 2 m/s 756 mmHg 84%
    18:00 +21°C° 0,5 mm 2 m/s 756 mmHg 85%
    19:00 +20°C° 0,3 mm 2 m/s 756 mmHg 88%
    20:00 +19°C° 0,3 mm 1 m/s 757 mmHg 90%
    21:00 +18°C° 0,3 mm 1 m/s 757 mmHg 93%
    22:00 +16°C° 0,1 mm 1 m/s 757 mmHg 94%
    23:00 +16°C° 0,1 mm 1 m/s 757 mmHg 94%

    1 Juin, Vendredi

    Heure Température Précipitation Vent Pression Humidité
    00:00 +15°C° 0,1 mm 1 m/s 757 mmHg 94%
    01:00 +15°C° 0 mm 1 m/s 757 mmHg 94%
    02:00 +15°C° 0 mm 1 m/s 757 mmHg 94%
    03:00 +14°C° 0 mm 1 m/s 757 mmHg 94%
    04:00 +15°C° 0 mm 1 m/s 758 mmHg 93%
    05:00 +14°C° 0 mm 0 m/s 758 mmHg 93%
    06:00 +15°C° 0 mm 0 m/s 758 mmHg 92%
    07:00 +16°C° 0 mm 0 m/s 758 mmHg 88%
    08:00 +20°C° 0 mm 1 m/s 759 mmHg 84%
    09:00 +21°C° 0 mm 1 m/s 759 mmHg 80%
    10:00 +22°C° 0,3 mm 1 m/s 759 mmHg 79%
    11:00 +23°C° 0,3 mm 2 m/s 759 mmHg 78%
    12:00 +23°C° 0,3 mm 2 m/s 759 mmHg 78%
    13:00 +22°C° 0,6 mm 3 m/s 759 mmHg 79%
    14:00 +22°C° 0,6 mm 3 m/s 759 mmHg 80%
    15:00 +22°C° 0,6 mm 3 m/s 759 mmHg 82%
    16:00 +21°C° 0,2 mm 3 m/s 759 mmHg 84%
    17:00 +20°C° 0,2 mm 3 m/s 759 mmHg 86%
    18:00 +20°C° 0,2 mm 3 m/s 759 mmHg 87%
    19:00 +18°C° 0 mm 3 m/s 759 mmHg 90%
    20:00 +17°C° 0 mm 3 m/s 760 mmHg 92%
    21:00 +14°C° 0 mm 3 m/s 760 mmHg 94%
    22:00 +14°C° 0 mm 3 m/s 760 mmHg 94%
    23:00 +13°C° 0 mm 3 m/s 760 mmHg 94%
    Voir plus